Regional Weather Roundup
Issued by NWS

Home | Current Version | Previous Version | Text Only | Print | Product List | Glossary Off
Versions: 1 2 3 4 5 6 7 8 9 10 11 12 13 14 15 16 17 18 19 20 21 22 23 24 25 26 27 28 29 30 31 32 33 34 35 36 37 38 39 40 41 42 43 44 45 46 47 48 49 50

000
ASUS43 KBIS 291902
RWRND

NORTH DAKOTA REGIONAL WEATHER ROUNDUP
NATIONAL WEATHER SERVICE BISMARCK ND
200 PM CDT WED JUL 29 2015

NOTE: "FAIR" INDICATES FEW OR NO CLOUDS BELOW 12,000 FEET WITH NO
SIGNIFICANT WEATHER AND/OR OBSTRUCTIONS TO VISIBILITY.


NDZ001>003-009>011-017-292000-
NORTHWEST NORTH DAKOTA

CITY           SKY/WX    TMP DP  RH WIND       PRES   REMARKS
WILLISTON      SUNNY     80  46  30 W21       30.05S
MINOT          MOSUNNY   78  51  38 W24G30    29.96R
MINOT AFB      MOSUNNY   79  54  41 W24G32    29.94R
$$

NDZ018>021-031>035-040>046-292000-
SOUTHWEST NORTH DAKOTA

CITY           SKY/WX    TMP DP  RH WIND       PRES   REMARKS
BISMARCK       PTSUNNY   80  48  32 W23G32    30.05R
DICKINSON      MOSUNNY   78  46  32 W22G29    30.10F
GARRISON         N/A     75  54  47 W21G29    30.01S
HETTINGER ARPT PTSUNNY   79  41  25 W24G33    30.16F
$$

NDZ004>008-012>016-024-026-027-054-292000-
NORTHEAST NORTH DAKOTA

CITY           SKY/WX    TMP DP  RH WIND       PRES   REMARKS
GRAND FORKS    PTSUNNY   79  54  41 W24G33    29.80R
GRND FRKS AFB  SUNNY     78  55  44 NW26G38   29.82R
DEVILS LAKE    SUNNY     77  52  41 NW28G40   29.86R
$$

NDZ022-023-025-028>030-036>039-047>053-292000-
SOUTHEAST NORTH DAKOTA

CITY           SKY/WX    TMP DP  RH WIND       PRES   REMARKS
FARGO          PTSUNNY   80  54  40 W26G35    29.88R
JAMESTOWN      MOSUNNY   77  50  38 NW29G37   29.95S
$$



USA.gov is the U.S. government's official web portal to all federal, state and local government web resources and services.